sat.trackr.live / text

‹ back to catalog

STARLINK-31410

NORAD 59179 · 2024-045B

PAYLOAD ACTIVE UNKNOWN

§ Identity

Operator
Country
US
Launch date
2024-03-10
Launch site
AFETR
Launch vehicle
Mass (kg)
RCS (m²)

Purposes: comms

External: N2YO · Heavens-Above · Gunter

§ Orbital elements

Epoch: 2026-09-19T18:45:39.763872Z

Period
94.27 min
Inclination
43.0002°
Eccentricity
0.0000832
Mean motion
15.27580960 rev/d
Perigee alt
482.5 km
Apogee alt
483.6 km
Semi-major
6,861.2 km
B*
5.5774e-5
RAAN
76.5536°
Arg perigee
277.3928°
Mean anomaly
82.6829°
Rev number
14,284

§ Raw data

STARLINK-314101 59179U 24045B   26262.78171023  .00001273  00000+0  55774-4 0  99972 59179  43.0002  76.5536 0000832 277.3928  82.6829 15.27580960142842

JSON: /api/v1/satellites/59179 · /tle

For live sub-satellite position, see the globe view (requires WebGL).

§ Visibility from observer

Set your observer location to see the next 7 days of passes ≥ 10°. The values pass through the URL so the page stays shareable.

No JS? Fill the form by hand. The geolocation button needs JavaScript.